TimeEST,TemperatureF,Dew PointF,Humidity,Sea Level PressureIn,VisibilityMPH,Wind Direction,Wind SpeedMPH,Gust SpeedMPH,PrecipitationIn,Events,Conditions,WindDirDegrees,DateUTC
12:15 AM,39.2,37.4,93,30.02,10.0,NW,4.6,16.1,0.00,,Clear,320,2013-02-25 05:15:00
12:35 AM,42.8,37.4,81,30.02,10.0,North,3.5,-,0.00,,Clear,360,2013-02-25 05:35:00
12:55 AM,42.8,35.6,76,30.02,10.0,NE,5.8,-,0.00,,Clear,40,2013-02-25 05:55:00
1:15 AM,46.4,35.6,66,30.02,10.0,NE,8.1,-,0.00,,Clear,40,2013-02-25 06:15:00
1:35 AM,46.4,33.8,62,30.02,10.0,NE,8.1,-,0.00,,Clear,40,2013-02-25 06:35:00
2:15 AM,46.4,33.8,62,30.03,10.0,NE,6.9,-,0.00,,Clear,50,2013-02-25 07:15:00
2:35 AM,46.4,32.0,57,30.01,10.0,NE,8.1,-,0.00,,Clear,50,2013-02-25 07:35:00
2:55 AM,46.4,32.0,57,30.01,10.0,NE,9.2,-,0.00,,Clear,50,2013-02-25 07:55:00
3:15 AM,46.4,32.0,57,30.01,10.0,NE,9.2,-,0.00,,Clear,50,2013-02-25 08:15:00
3:35 AM,46.4,32.0,57,30.01,10.0,NE,9.2,-,0.00,,Clear,50,2013-02-25 08:35:00
3:55 AM,46.4,30.2,53,30.02,10.0,ENE,8.1,-,0.00,,Clear,60,2013-02-25 08:55:00
4:15 AM,44.6,30.2,57,30.04,10.0,ENE,8.1,-,0.00,,Clear,70,2013-02-25 09:15:00
4:35 AM,44.6,30.2,57,30.04,10.0,NE,6.9,-,0.00,,Clear,50,2013-02-25 09:35:00
4:55 AM,44.6,30.2,57,30.04,10.0,ENE,6.9,-,0.00,,Clear,60,2013-02-25 09:55:00
5:15 AM,44.6,30.2,57,30.05,10.0,ENE,6.9,-,0.00,,Clear,60,2013-02-25 10:15:00
5:35 AM,44.6,28.4,53,30.05,10.0,ENE,10.4,-,0.00,,Clear,60,2013-02-25 10:35:00
6:15 AM,44.6,28.4,53,30.05,10.0,NE,10.4,-,0.00,,Clear,50,2013-02-25 11:15:00
6:55 AM,42.8,28.4,57,30.07,10.0,ENE,9.2,-,0.00,,Clear,60,2013-02-25 11:55:00
7:15 AM,42.8,28.4,57,30.09,10.0,ENE,9.2,-,0.00,,Clear,60,2013-02-25 12:15:00
7:35 AM,42.8,30.2,61,30.10,10.0,ENE,9.2,-,0.00,,Clear,60,2013-02-25 12:35:00
7:55 AM,42.8,30.2,61,30.11,10.0,ENE,9.2,-,0.00,,Clear,60,2013-02-25 12:55:00
8:15 AM,42.8,32.0,66,30.11,10.0,ENE,9.2,-,0.00,,Clear,60,2013-02-25 13:15:00
8:35 AM,42.8,32.0,66,30.12,10.0,NE,9.2,17.3,0.00,,Clear,50,2013-02-25 13:35:00
8:55 AM,42.8,32.0,66,30.14,10.0,NE,11.5,-,0.00,,Clear,50,2013-02-25 13:55:00
9:15 AM,42.8,33.8,70,30.16,10.0,NE,9.2,-,0.00,,Clear,50,2013-02-25 14:15:00
9:35 AM,42.8,33.8,70,30.16,10.0,NE,10.4,-,0.00,,Clear,50,2013-02-25 14:35:00
9:55 AM,42.8,33.8,70,30.16,10.0,NE,11.5,-,0.00,,Clear,50,2013-02-25 14:55:00
10:15 AM,42.8,32.0,66,30.15,10.0,ENE,10.4,20.7,0.00,,Clear,60,2013-02-25 15:15:00
11:15 AM,42.8,30.2,61,30.16,10.0,NE,12.7,18.4,0.00,,Clear,40,2013-02-25 16:15:00
11:35 AM,42.8,30.2,61,30.14,10.0,ENE,12.7,17.3,0.00,,Clear,60,2013-02-25 16:35:00
11:55 AM,42.8,30.2,61,30.15,10.0,East,6.9,-,0.00,,Clear,80,2013-02-25 16:55:00
12:15 PM,42.8,30.2,61,30.15,10.0,NE,12.7,-,0.00,,Clear,40,2013-02-25 17:15:00
12:35 PM,42.8,30.2,61,30.12,10.0,ENE,11.5,20.7,0.00,,Clear,60,2013-02-25 17:35:00
12:55 PM,42.8,30.2,61,30.13,10.0,ENE,8.1,-,0.00,,Clear,70,2013-02-25 17:55:00
1:15 PM,42.8,30.2,61,30.11,10.0,ENE,10.4,-,0.00,,Clear,60,2013-02-25 18:15:00
1:35 PM,42.8,30.2,61,30.11,10.0,ENE,10.4,-,0.00,,Clear,60,2013-02-25 18:35:00
1:55 PM,42.8,30.2,61,30.11,10.0,ENE,11.5,-,0.00,,Clear,60,2013-02-25 18:55:00
2:15 PM,44.6,30.2,57,30.12,10.0,ENE,6.9,-,0.00,,Clear,60,2013-02-25 19:15:00
2:35 PM,44.6,30.2,57,30.11,10.0,East,8.1,-,0.00,,Clear,80,2013-02-25 19:35:00
2:55 PM,44.6,30.2,57,30.09,10.0,ENE,9.2,-,0.00,,Clear,60,2013-02-25 19:55:00
3:15 PM,44.6,30.2,57,30.08,10.0,NE,11.5,-,0.00,,Clear,50,2013-02-25 20:15:00
3:35 PM,44.6,30.2,57,30.07,10.0,ENE,9.2,-,0.00,,Clear,60,2013-02-25 20:35:00
3:55 PM,44.6,30.2,57,30.09,10.0,NE,6.9,-,0.00,,Scattered Clouds,50,2013-02-25 20:55:00
4:15 PM,44.6,30.2,57,30.09,10.0,NE,10.4,-,0.00,,Mostly Cloudy,40,2013-02-25 21:15:00
4:35 PM,44.6,30.2,57,30.09,10.0,NE,10.4,-,0.00,,Scattered Clouds,50,2013-02-25 21:35:00
4:55 PM,44.6,30.2,57,30.09,10.0,NE,8.1,-,0.00,,Mostly Cloudy,50,2013-02-25 21:55:00
5:15 PM,44.6,30.2,57,30.10,10.0,NE,9.2,-,0.00,,Overcast,40,2013-02-25 22:15:00
5:35 PM,42.8,30.2,61,30.08,10.0,ENE,8.1,16.1,0.00,,Overcast,70,2013-02-25 22:35:00
5:55 PM,42.8,30.2,61,30.09,10.0,ENE,8.1,-,0.00,,Overcast,70,2013-02-25 22:55:00
6:15 PM,42.8,30.2,61,30.10,10.0,ENE,8.1,-,0.00,,Mostly Cloudy,60,2013-02-25 23:15:00
6:35 PM,42.8,30.2,61,30.11,10.0,ENE,6.9,-,0.00,,Mostly Cloudy,60,2013-02-25 23:35:00
6:55 PM,42.8,30.2,61,30.11,10.0,ENE,4.6,-,0.00,,Overcast,70,2013-02-25 23:55:00
7:15 PM,42.8,30.2,61,30.12,10.0,East,6.9,-,0.00,,Overcast,80,2013-02-26 00:15:00
7:35 PM,42.8,30.2,61,30.11,10.0,ENE,8.1,-,0.00,,Overcast,70,2013-02-26 00:35:00
7:55 PM,42.8,30.2,61,30.10,10.0,ENE,6.9,-,0.00,,Overcast,70,2013-02-26 00:55:00
8:15 PM,42.8,30.2,61,30.10,10.0,ENE,8.1,-,0.00,,Overcast,70,2013-02-26 01:15:00
8:35 PM,42.8,30.2,61,30.10,10.0,ENE,9.2,-,0.00,,Overcast,60,2013-02-26 01:35:00
8:55 PM,42.8,30.2,61,30.09,10.0,ENE,10.4,-,0.00,,Overcast,60,2013-02-26 01:55:00
9:15 PM,42.8,28.4,57,30.08,10.0,ENE,12.7,19.6,0.00,,Overcast,70,2013-02-26 02:15:00
9:35 PM,42.8,28.4,57,30.08,10.0,ENE,12.7,18.4,0.00,,Overcast,60,2013-02-26 02:35:00
9:55 PM,42.8,28.4,57,30.07,10.0,ENE,10.4,-,0.00,,Overcast,60,2013-02-26 02:55:00
10:15 PM,42.8,28.4,57,30.06,10.0,ENE,8.1,-,0.00,,Overcast,60,2013-02-26 03:15:00
10:35 PM,42.8,28.4,57,30.06,10.0,ENE,9.2,16.1,0.00,,Overcast,60,2013-02-26 03:35:00
10:55 PM,42.8,30.2,61,30.06,10.0,ENE,8.1,-,0.00,,Overcast,70,2013-02-26 03:55:00
11:15 PM,42.8,30.2,61,30.05,10.0,ENE,10.4,-,0.00,,Overcast,60,2013-02-26 04:15:00
11:35 PM,42.8,30.2,61,30.04,10.0,ENE,9.2,-,0.00,,Overcast,60,2013-02-26 04:35:00
11:55 PM,42.8,30.2,61,30.05,10.0,NE,11.5,-,0.00,,Overcast,50,2013-02-26 04:55:00